Location: Newark
(55.8871°S, 37.4681°W)
Time: 13:25:50
(UTC+00:00)

N. Korean satellite - Pass Details

Date: 19 October 2019
Orbit: 456 x 506 km, 97.2° (Epoch: 17 November)

Event Time Altitude Azimuth Distance (km) Brightness Sun altitude
Rises 05:41:22 0° 69° (ENE) 2,635 10.7 -11.6°
Reaches altitude 10° 05:44:19 10° 95° (E) 1,752 10.3 -11.3°
Maximum altitude 05:46:14 14° 125° (SE) 1,533 10.5 -11.1°
Drops below altitude 10° 05:48:10 10° 156° (SSE) 1,754 10.4 -10.8°
Sets 05:51:07 0° 182° (S) 2,639 10.8 -10.5°
